Timeline UpdatesTrip UpdatesNews PostsPvt PostsTravel TipsAdmin PostsConv PostsFollowed PostsChat RequestsBlog PostsPNR Posts

Disclaimer
Search
 
 
Tue Sep 2, 2014 19:39:52 ISTHomeTrainsΣChainsAtlasPNRForumGalleryNewsFAQTripsMembersLoginFeedback
No Recent News for this Train
Other Trains in the News **new
Latest...
.
Tue Sep 02, 2014 (11:54AM)
⇐ Return Journey: Train# 18478

18477/Kalinga Utkal Express

Time-Table HAS CHANGED.
Yesterday (2:00PM)
Change Departure Station:
Change Arrival Station:
Post a Train Travel TipPost a Train Travel Tip **new
Post a Comment/Question/Picture/VideoPost a Comment/Question/Picture/Video
Pantry/Catering
✓ Pantry Car Avbl
✓ Catering Avbl
RSA - Rake Sharing
Rake/Coach Composition
Coach Composition:ENG-SLR-GS-GS-A1-B2-B1-S12-S11-S10-PC-S9-S8-S7-S6-S5-S4-S3-S2-S1-GS-SLR. By DJ 132 Entry# 701081
Loco
PURI-NZM: TKD WAP-7 NZM-HW: LDH WDM-3A
News    PNR    Forum    Time-Table    Availability    Fare Chart    Map    Arr/Dep History    Trips    Gallery    ΣChains    X/O    Timeline    
Travel Time: 10h 25m    16 halts    Distance: 578 km    Avg Speed: 55 km/hr
Type: Mail/Express
Zone: ECoR/East Coast
Departs @ 20:55
Platform# 5
SMTWTFS
Puri/PURI 
Arrives @ 07:20 +1 night
Platform# ???
SMTWTFS
Chakradharpur/CKP 

16 halts. 95 intermediate Stations between Puri and Chakradharpur

Show ALL intermediate Stations  Show Old Time-Table

#CodeStation NameX/OArrivesAvgDepartsAvgHaltPFDay#KmSpeedElevZoneAddress
1PURI»Puri (5)»  -20:55-510.04912mECoRPuri, Odisha
2SILSakhi Gopal (3)  21:15-21:16-1m--116.44810mECoRPuri, Odisha
3KURKhurda Road Junction (7)X  21:50-21:55-5m--143.95725mECoRKhordha, Odisha
4BBSBhubaneswar (4)X  22:20 22:15-22:25 22:30-5 15m4162.86740mECoRBhubaneshwar, Odisha
5CTCCuttack Junction (5)  22:50 22:55-22:55 23:00-5m1190.78528mECoRCuttack, Odisha
6JJKRJajpur Keonjhar Road (4)  23:51-23:52-1m--1162.74036mECoRJajpur, Odisha
7BHCBhadrak (4)X  00:58-01:00-2m--2206.48323mECoRBhadrak, Odisha
8SOROSoroX  01:21-01:22-1m--2235.47214mSERSoro, Odisha
9BLSBalasore (4)X  01:50-01:55-5m--2268.87019mSERBalasore, Odisha
10BTSBasta (3)X  02:19-02:20-1m--2296.86916mSERBasta, Odisha
11JERJaleswar (4)X  02:37-02:38-1m--2316.38313mSERJaleswar, Odisha
12HIJHijli (2)  03:25-03:26-1m--2381.05048mSERdist - paschim medinipur, West Bengal
13CKUChakulia (4)  04:47-04:48-1m--2448.880126mSERChakulia, Jharkhand
14GTSGhatsila (3)X  05:11-05:12-1m--2479.445103mSEREast Singhbhum, Jharkhand
15TATATatanagar Junction (5)  06:05 06:00-06:10-5 10m32515.558164mSER91-657-2423026, Jharkhand
16SINISini Junction (3)X  06:37 06:38-06:38 06:39-1m--2542.554182mSERNational Highway 33, Jharkhand
17RKSNRajkharsawan Junction (3)  06:54 06:56-06:55 06:57-1m--2557.852189mSERSaraikela Kharswan District, Jharkhand
18CKP•Chakradharpur (3)•X  07:20-07:30-10m--2577.884235mSERChakradharpur (West Singhbhum), Jharkhand
19GOLGoilkera (2)  07:54-07:55-1m--2611.655333mSERGoilkera, Jharkhand
20MOUManoharpur  08:25-08:26-1m--2639.170228mSERManoharpur, Jharkhand
21BZRBisra  08:50 08:48-08:51 08:49-1m--2664.851224mSERSundargarh, Odisha
22BNDMBondamunda (2)  08:55 08:58-08:56 08:59-1m--2672.324213mSERRourkela, Odisha
23ROURourkela Junction (5)X  09:15-09:30-15m12678.966198mSERRourkela, Odisha
24GPRaj Gangpur (3)  09:57-09:58-1m12708.774237mSERRaj Ganpur, Odisha
25BMBBamra (3)  10:26-10:27-1m--2743.335259mSERBamra PH : 06642-229268, Odisha
26JSGJharsuguda Junction (5)X  11:30-11:40-10m--2779.858236mSERJharsuguda, Odisha
27BRJNBrajrajnagarX  11:49 11:52-11:50 11:53-1m--2791.559212mSECRBrajrajnagar, Odisha
28BPHBelpahar  11:59 12:02-12:00 12:03-1m--2800.483235mSECRBelpahar, Odisha
29RIGRaigarh (3)X  12:36 12:40-12:41 12:45-5m22851.575220mSECRRaigarh, Chhattisgarh
30KHSKharsia  13:04 13:12-13:05 13:13-1m--2885.466259mSECRNational Highway 200, Chhattisgarh
31SKTSakti (4)  13:18 13:27-13:19 13:28-1m--2900.869237mSECRJanjgir-Champa, Chhattisgarh
32BUABaradwar  13:31 13:41-13:32 13:42-1m--2915.752256mSECRJanjgir-Champa, Chhattisgarh
33CPHChampa Junction (3)  13:49 14:00-13:54 14:05-5m22931.254264mSECRNational Highway 200 (07819-245767), Chhattisgarh
34NIANaila  14:04 14:17-14:05 14:18-1m--2942.069273mSECRJanjgir, Chhattisgarh
35AKTAkaltara (4)  14:18 14:31-14:19 14:32-1m--2957.028284mSECRDist. Janjgir Champa, Chhattisgarh
36BSPBilaspur Junction (8)  15:10 15:30-15:25 15:45-15m22984.277271mSECRBilaspur, Chhattisgarh
37KGBKargi Road  15:57 16:10-15:58 16:11-1m--21016.253327mSECRBilaspur, Chhattisgarh
38BIGBelgahna  16:18 16:29-16:19 16:30-1m--21032.046327mSECRBilaspur, Chhattisgarh
39PNDPendra Road  17:25 17:40-17:30 17:45-5m921085.861620mSECRBilaspur district, Chhattisgarh
40APRAnuppur Junction (4)X  18:20 18:35-18:25 18:40-5m--21136.976487mSECRAnuppur, Madhya Pradesh
41AALAmlaiX  18:35 18:50-18:36 18:51-1m--21149.652495mSECRAnuppur, Madhya Pradesh
42BUHBurhar  18:46 19:01-18:47 19:02-1m--21158.335494mSECRBurhar, Madhya Pradesh
43SDLShahdolX  19:25 19:35-19:30 19:40-5m--21177.864466mSECR, Madhya Pradesh
44BRSBirsinghpur  20:05 20:15-20:06 20:16-1m--21215.248461mSECRPali, Madhya Pradesh
45NRZBNowrozabadX  20:15 20:25-20:16 20:26-1m--21222.452458mSECRNational Highway 78, Madhya Pradesh
46UMRUmaria (3)  20:45 20:52-20:50 20:57-5m221245.052469mSECRUmaria, Madhya Pradesh
47CHDChandia Road (1)X  21:09 21:19-21:10 21:20-1m121264.025406mSECRNational Highway 78, Madhya Pradesh
48KMZKatni Murwara  22:55-23:10-15m--21303.870385mWCRMP 483504 ?, Madhya Pradesh
49DMODamoh (2)X  00:43-00:45-2m--31413.075365mWCRDamoh, Madhya Pradesh
50PHAPatharia  01:05 01:06-01:07 01:08-2m--31439.162382mWCRState Highway 14, Madhya Pradesh
51SGOSaugor (2)X  01:57-02:00-3m--31490.155519mWCRMP 470001Madhya pradesh, Madhya Pradesh
52KYEKhurai (5)XO  02:58-03:00-2m--31542.922439mWCRKhurai, Madhya Pradesh
53MAKRMalkheri Junction (2)  04:05 03:46-04:07 03:47-2 1m--31560.157421mWCRGuna, Madhya Pradesh
54LARLalitpur (3)X  05:09 04:54-05:10 04:55-1m331623.266373mNCRLalitpur, Uttar Pradesh
55TBTTalbahat (4)X  05:31-05:33-2m--31663.2125314mNCRKhaniyadhana Station Rd, Madhya Pradesh
56BABBabina (3)X  05:54 05:45-05:55 05:46-1m131688.145285mNCRBabina, Uttar Pradesh
57JHSJhansi Junction (7)X  06:35 06:20-06:43 06:30-8 10m431713.672259mNCRJhansi, Uttar Pradesh
58DAADatia (2)  07:06 06:51-07:07 06:52-1m--31738.679264mNCRDatia, Madhya Pradesh
59DBADabra (3)  07:29 07:15-07:30 07:16-1m131769.069 NCRDabra(District-Gwalior), Madhya Pradesh
60GWLGwalior Junction (4)  08:35 07:53-08:40 07:58-5m231811.389214mNCRGwalior, Madhya Pradesh
61MRAMorena (3)O  09:08 08:24-09:09 08:25-1m231849.867176mNCRMorena, Madhya Pradesh
62DHODholpur Junction (3)XO  09:33 08:49-09:34 08:50-1m131876.727177mNCRDholpur, Rajasthan
63AGCAgra Cantt. (6)X  10:45-10:53-8m331929.324174mNCRAgra, Uttar Pradesh
64RKMRaja Ki Mandi (4)  11:03-11:04-1m131933.369170mNCRAgra, Uttar Pradesh
65MTJMathura Junction (10)X  11:47-11:52-5m231983.061179mNCRMathura, Uttar Pradesh
66FDBFaridabad (4)X  13:30 13:44-13:31 13:45-1m232096.123206mNRold Faridabad, Haryana
67NZMDelhi Hazrat Nizamuddin (7)X14:05 14:40-14:35 15:10-30m132116.937209mNRNew Delhi 110013, Delhi NCT
68GZBGhaziabad Junction (6)  15:11 15:48-15:13 15:50-2m132140.345217mNRGhaziabad, Uttar Pradesh
69MTCMeerut City Junction (6)X  15:55 16:53-16:00 16:56-5 3m132187.643229mNRMeerut, Uttar Pradesh
70MUTMeerut Cantt. (2) new halt!!  17:02-17:03-1m--32191.970230mNRMeerut, Uttar Pradesh
71MOZMuzaffarnagar (3)O  16:52 17:47-16:53 17:48-1m132243.241247mNRMuzaffarNagar, Uttar Pradesh
72DBDDeoband (2)X  18:11 18:23-18:12 18:24-1m132267.250258mNRSaharanpur, Uttar Pradesh
73TPZTapri Junction (2)  19:01 18:57-19:02 18:58-1m232294.953274mNRTapri -Saharanpur, Uttar Pradesh
74RKRoorkee (3)X  19:37 19:34-19:38 19:35-1m332326.934264mNRRoorkee - 247667, Uttarakhand
75HWHaridwar Junction (9)  20:30 20:55--232371.6-294mNRHaridwar, Uttarakhand
Scroll to Top
Scroll to Bottom